Tracking 28790 objects as of 19-Apr-2024
HD Live streaming from Space Station
objects crossing your sky now

COSMOS 397 DEB

Track COSMOS 397 DEB now!
10-day predictions


NORAD ID: 14446
Int'l Code: 1971-015CQ
Perigee: 994.5 km
Apogee: 1,065.1 km
Inclination: 65.6 °
Period: 105.6 minutes
Semi major axis: 7400 km
RCS: 0.0127 m2 (small)
Launch date: February 25, 1971
Source: Commonwealth of Independent States (former USSR) (CIS)
Launch site: TYURATAM MISSILE AND SPACE COMPLEX (TTMTR)

Note: This is SATELLITE DEBRIS
Your satellite tracking list
Your tracking list is empty




NASA's NSSDC Master Catalog

Two Line Element Set (TLE):
1 14446U 71015CQ  24110.38482733  .00001451  00000-0  19196-2 0  9998
2 14446  65.5706  85.1014 0047681 121.2408 316.6713 13.63595282709505
Source of the keplerian elements: AFSPC